Tracking 35274 objects as of 12-Sep-2026
HD Live streaming from Space Station
objects crossing your sky now

OBJECT D

Track OBJECT D now!
10-day predictions


NORAD ID: 58428
Int'l Code: 2023-165D
Launch date: October 27, 2023
Source: Commonwealth of Independent States (former USSR) (CIS)
Launch site: PLESETSK MISSILE AND SPACE COMPLEX (PKMTR)

Note: This is SATELLITE DEBRIS
Your satellite tracking list
Your tracking list is empty




NASA's NSSDC Master Catalog

Two Line Element Set (TLE):
1 58428U 23165D   26254.87407057 -.00000014  00000-0  43876-4 0  9999
2 58428  67.1486  76.2189 0019732 266.3078  93.5750 13.97437414142940
Source of the keplerian elements: AFSPC